Home > Weather > U.S.A. > Alexandria > Past weeks

Flag for U.S.A. Weather past 2 weeks in Alexandria, Virginia, U.S.A.

48 °F


Feels Like: 46 °F
Forecast: 48 / 59 °F
Wind: 5 mph from Southwest

Location: Reagan National Airport

Current Time: Dec 2, 2015 at 12:39:30 AM

Latest Report: Dec 1, 2015 at 11:52 PM

Visibility: 0 mi

Pressure: 29.98 "Hg

Humidity: 100%

Dew point: 48 °F

Location of AlexandriaLocation

Historic Weather in Alexandria — Graph


Alexandria temperature yesterday

Maximum temperature yesterday: 48 °F (at 12:52 PM)
Minimum temperature yesterday: 44 °F (at 4:52 AM)
Average temperature yesterday: 47 °F

Past Weeks' High & Low Weather Summary

High65 °F (Nov 18, 12:52 PM)100% (Nov 19, 3:59 PM)30.80 "Hg (Nov 19, 3:59 PM)
Low32 °F (Nov 23, 6:52 AM)21% (Nov 20, 2:52 PM)29.91 "Hg (Nov 21, 11:52 PM)
Average49 °F70%30.29 "Hg
* Reported Nov 16 9:52 PM — Dec 1 9:52 PM, Alexandria, Weather by CustomWeather, © 2015

Note: Actual official high and low records may vary slightly from our data, if they occured in-between our weather recording intervals... More about our weather records


Alexandria weather history for previous 24 hours

Time TempWeatherWind HumidityBarometerVisibility
9:52 PM
Tue, Dec 1
48 °FFog.5 mph96%30.02 "Hg6 mi
8:52 PM48 °FLow clouds.6 mph93%30.00 "Hg10 mi
7:52 PM48 °FMostly cloudy.6 mph93%30.02 "Hg10 mi
6:52 PM48 °FMostly cloudy.5 mph93%30.03 "Hg10 mi
5:52 PM48 °FLow clouds.5 mph93%30.03 "Hg10 mi
5:00 PM48 °FMostly cloudy.6 mph93%30.05 "Hg10 mi
3:52 PM48 °FMostly cloudy.9 mph93%30.06 "Hg10 mi
2:52 PM48 °FLight rain. Low clouds.6 mph96%30.03 "Hg10 mi
1:52 PM48 °FLight rain. Fog.6 mph96%30.06 "Hg4 mi
12:52 PM48 °FLight rain. Low clouds.6 mph93%30.10 "Hg7 mi
11:57 AM47 °FRain. Fog.3 mph93%30.12 "Hg2 mi
10:52 AM47 °FRain. Fog.3 mph93%30.14 "Hg3 mi
9:52 AM47 °FRain. Fog.3 mph93%30.15 "Hg3 mi
8:52 AM47 °FLight rain. Fog.No wind93%30.14 "Hg6 mi
7:52 AM46 °FLight rain. Fog.3 mph96%30.14 "Hg5 mi
6:59 AM46 °FRain. Fog.No wind96%30.15 "Hg4 mi
5:52 AM46 °FDrizzle. Fog.3 mph96%30.15 "Hg2 mi
4:52 AM44 °FLight rain. Fog.6 mph100%30.15 "Hg3 mi
3:52 AM45 °FLight rain. Fog.8 mph97%30.16 "Hg2 mi
2:52 AM46 °FLight rain. Fog.5 mph96%30.18 "Hg2 mi
1:57 AM45 °FLight rain. Fog.6 mph97%30.19 "Hg2 mi
1:00 AM45 °FLight rain. Fog.7 mph97%30.19 "Hg2 mi
Weather by CustomWeather, © 2015

See weather overviewHow to use our weather pages